Waarnemingen

Advertentie
Mijn weer
Lugo/Rozas, Spanje (8008): temperatuur & dauwpunt: 14.10.2018 21:00:00 - 20.10.2018 21:00:00 (CEST)Lugo/Rozas, Spanje (8008): windsnelheid: 14.10.2018 21:00:00 - 20.10.2018 21:00:00 (CEST)Lugo/Rozas, Spanje (8008): windrichting: 14.10.2018 21:00:00 - 20.10.2018 21:00:00 (CEST)Lugo/Rozas, Spanje (8008): luchtdruk: 14.10.2018 21:00:00 - 20.10.2018 21:00:00 (CEST)Lugo/Rozas, Spanje (8008): zicht: 14.10.2018 21:00:00 - 20.10.2018 21:00:00 (CEST)Lugo/Rozas, Spanje (8008): neerslag: 14.10.2018 21:00:00 - 20.10.2018 21:00:00 (CEST)
Datum & Tijd tt [°C] td [°C] ff [km/u] ff [kn] dd ppp [hPa] vv [km] rr [mm]
20.10.2018 21:00:00 14,4 12,8 9 5 NO 1022,5 14 0,0
20.10.2018 20:00:00 14,8 12,8 5 3 NO 1022,0 17 -
20.10.2018 19:00:00 15,4 12,9 9 5 NO 1021,3 20 0,0
20.10.2018 18:00:00 16,7 13,0 8 4 NO 1020,7 20 0,0
20.10.2018 17:00:00 17,6 12,9 13 7 ONO 1021,0 20 -
20.10.2018 16:00:00 19,0 13,0 16 9 ONO 1020,9 20 0,0
20.10.2018 15:00:00 20,0 13,0 8 4 NNO 1021,1 20 0,0
20.10.2018 14:00:00 18,5 12,7 15 8 NO 1022,4 20 -
20.10.2018 13:00:00 17,3 12,0 16 9 ONO 1023,2 20 0,0
20.10.2018 12:00:00 16,5 11,4 13 7 ONO 1023,1 20 0,0
20.10.2018 11:00:00 14,4 11,5 4 2 OZO 1023,5 20 -
20.10.2018 10:00:00 10,2 9,7 2 1 Z 1023,7 3,1 0,0
20.10.2018 09:00:00 8,8 8,2 4 2 W 1023,2 1,2 0,0
20.10.2018 08:00:00 9,6 8,8 2 1 O 1023,0 2,1 -
20.10.2018 07:00:00 9,4 8,6 4 2 ZO 1022,8 2,1 0,0
20.10.2018 06:00:00 10,1 9,0 2 1 ZW 1022,1 1,3 0,0
20.10.2018 05:00:00 11,9 10,3 4 2 W 1022,0 11 -
20.10.2018 04:00:00 12,5 11,1 9 5 ONO 1022,0 17 0,0
20.10.2018 03:00:00 13,0 11,4 16 9 ONO 1021,9 18 0,0
20.10.2018 02:00:00 13,1 11,8 13 7 NO 1022,2 14 -
20.10.2018 01:00:00 13,1 11,8 11 6 ONO 1021,9 16 0,0
20.10.2018 00:00:00 13,4 12,0 9 5 ONO 1022,0 18 0,0
19.10.2018 23:00:00 13,3 12,2 11 6 ONO 1021,9 17 -
19.10.2018 22:00:00 13,2 12,1 8 4 NO 1021,2 19 0,0
19.10.2018 21:00:00 13,8 12,2 5 3 NO 1020,6 20 0,0
19.10.2018 20:00:00 14,2 12,6 5 3 NO 1020,0 17 -
19.10.2018 19:00:00 15,4 13,1 15 8 NO 1019,0 20 0,0
19.10.2018 18:00:00 15,9 13,2 13 7 NO 1018,6 20 0,0
19.10.2018 17:00:00 16,3 13,8 11 6 NO 1018,6 20 -
19.10.2018 16:00:00 17,3 13,8 16 9 NO 1018,3 20 0,0
19.10.2018 15:00:00 18,1 13,8 8 4 NO 1018,2 20 0,0
19.10.2018 14:00:00 18,4 13,7 13 7 NO 1018,4 20 -
19.10.2018 13:00:00 17,1 13,0 21 11 ONO 1019,2 20 0,0
19.10.2018 12:00:00 16,6 12,7 9 5 NO 1019,4 20 0,0
19.10.2018 11:00:00 16,6 13,3 5 3 NNO 1018,9 20 -
19.10.2018 10:00:00 13,6 12,2 15 8 ONO 1018,8 18 0,0
19.10.2018 09:00:00 11,0 11,0 4 2 NW 1018,8 3,7 0,0
19.10.2018 08:00:00 11,2 9,8 2 1 W 1018,3 15 -
19.10.2018 07:00:00 12,4 11,3 4 2 NNO 1017,8 17 0,0
19.10.2018 06:00:00 13,3 11,7 8 4 NO 1018,1 20 0,0
19.10.2018 05:00:00 13,5 12,2 8 4 NO 1018,5 20 -
19.10.2018 04:00:00 13,9 12,3 5 3 NO 1018,9 20 0,0
19.10.2018 03:00:00 13,8 12,5 9 5 ONO 1018,8 20 0,0
19.10.2018 02:00:00 13,3 11,9 9 5 ONO 1019,0 20 -
19.10.2018 01:00:00 13,1 11,7 11 6 ONO 1018,6 20 0,0
19.10.2018 00:00:00 12,9 11,8 8 4 NO 1018,9 20 0,0
18.10.2018 23:00:00 12,9 11,5 5 3 NO 1018,4 20 -
18.10.2018 22:00:00 13,3 11,7 11 6 ONO 1017,9 20 0,0
18.10.2018 21:00:00 13,4 11,8 9 5 NO 1017,8 20 0,0
18.10.2018 20:00:00 14,1 12,1 5 3 N 1016,8 20 -
18.10.2018 19:00:00 15,1 12,6 11 6 NO 1016,1 20 0,0
18.10.2018 18:00:00 15,9 12,6 11 6 NO 1016,0 20 0,0
18.10.2018 17:00:00 16,6 12,9 16 9 NO 1015,9 20 -
18.10.2018 16:00:00 16,7 13,0 15 8 ONO 1016,3 20 0,0
18.10.2018 15:00:00 15,5 12,8 13 7 ONO 1016,8 20 0,0
18.10.2018 14:00:00 16,0 12,5 13 7 NO 1016,9 25 -
18.10.2018 13:00:00 16,0 12,5 5 3 NO 1017,3 20 0,0
18.10.2018 12:00:00 14,1 12,0 11 6 ONO 1017,6 20 0,0
18.10.2018 11:00:00 13,2 11,9 11 6 ONO 1017,4 25 -
18.10.2018 10:00:00 12,8 12,0 9 5 NO 1016,9 20 0,0
18.10.2018 09:00:00 12,6 12,0 11 6 NO 1016,2 10 0,2
18.10.2018 08:00:00 12,9 12,3 13 7 ONO 1015,6 20 -
18.10.2018 07:00:00 12,5 11,7 13 7 ONO 1015,2 20 0,0
18.10.2018 06:00:00 12,2 11,6 11 6 ONO 1014,8 20 0,0
18.10.2018 05:00:00 12,3 11,8 16 9 ONO 1014,8 18 -
18.10.2018 04:00:00 11,8 11,3 13 7 ONO 1014,8 13 0,0
18.10.2018 03:00:00 11,8 11,2 5 3 NO 1014,9 14 0,2
18.10.2018 02:00:00 11,8 11,2 2 1 NNO 1015,0 4,8 -
18.10.2018 01:00:00 11,5 11,0 4 2 ONO 1015,5 14 0,4
18.10.2018 00:00:00 11,6 11,0 2 1 NO 1015,6 17 0,4
17.10.2018 23:00:00 11,7 10,9 2 1 ONO 1015,8 18 -
17.10.2018 22:00:00 12,1 11,2 2 1 NNW 1015,7 18 0,2
17.10.2018 21:00:00 12,0 11,4 2 1 NNW 1015,5 11 1,0
17.10.2018 20:00:00 12,0 11,2 4 2 Z 1015,4 17 -
17.10.2018 19:00:00 12,6 11,5 4 2 O 1015,1 10 2,0
17.10.2018 18:00:00 13,0 11,6 2 1 NNW 1015,4 9 4,0
17.10.2018 17:00:00 14,1 11,8 9 5 W 1015,0 10 -
17.10.2018 16:00:00 16,2 11,8 5 3 NW 1014,4 20 0,0
17.10.2018 15:00:00 16,6 12,5 4 2 NW 1015,0 20 0,0
17.10.2018 14:00:00 16,3 12,1 4 2 WNW 1015,7 20 -
17.10.2018 13:00:00 14,2 12,1 4 2 NO 1016,7 20 0,0
17.10.2018 12:00:00 10,1 9,6 2 1 O 1018,0 4,4 0,0
17.10.2018 11:00:00 8,4 8,1 2 1 NNW 1019,0 0,3 -
17.10.2018 10:00:00 7,0 6,6 4 2 OZO 1019,4 0,1 0,0
17.10.2018 09:00:00 7,1 6,5 0 0 N 1019,7 0,1 0,0
17.10.2018 08:00:00 7,6 7,0 2 1 OZO 1019,9 0,1 -
17.10.2018 07:00:00 7,5 7,1 0 0 N 1020,0 0,1 0,0
17.10.2018 06:00:00 7,4 7,0 2 1 ZO 1019,9 0,2 0,0
17.10.2018 05:00:00 7,2 6,6 2 1 ZO 1020,1 0,1 -
17.10.2018 04:00:00 7,3 6,6 2 1 ZZO 1020,4 1,1 0,0
17.10.2018 03:00:00 7,8 7,2 2 1 WZW 1020,7 0,2 0,0
17.10.2018 02:00:00 7,7 6,8 2 1 ZZO 1020,8 4,2 -
17.10.2018 01:00:00 8,4 6,7 2 1 ZZO 1021,0 - 0,0
17.10.2018 00:00:00 9,2 7,8 2 1 ZZO 1021,0 4,4 0,0
16.10.2018 23:00:00 10,2 8,3 2 1 Z 1020,7 12 -
16.10.2018 22:00:00 11,0 9,1 4 2 WZW 1020,2 8 0,0
16.10.2018 21:00:00 12,5 10,2 2 1 ZZW 1019,7 20 0,0
16.10.2018 20:00:00 15,3 10,7 2 1 ZO 1018,6 20 -
16.10.2018 19:00:00 17,9 10,0 2 1 N 1017,5 20 0,0
16.10.2018 18:00:00 19,3 9,5 4 2 N 1017,3 20 0,0
16.10.2018 17:00:00 19,0 9,7 5 3 ONO 1017,3 20 -
16.10.2018 16:00:00 18,0 9,9 4 2 NNO 1017,6 20 0,0
16.10.2018 15:00:00 16,0 12,4 4 2 W 1018,0 20 0,0
16.10.2018 14:00:00 13,2 11,3 4 2 NNW 1018,8 8 -
16.10.2018 13:00:00 11,3 10,7 2 1 OZO 1019,1 12 0,0
16.10.2018 12:00:00 10,3 9,7 4 2 NW 1019,0 - 0,0
16.10.2018 11:00:00 9,1 8,6 4 2 WZW 1018,9 0,3 -
16.10.2018 10:00:00 8,4 8,0 2 1 Z 1018,2 0,4 0,0
16.10.2018 09:00:00 8,0 7,2 4 2 WZW 1017,4 7 0,0
16.10.2018 08:00:00 8,1 7,7 2 1 ONO 1016,7 0,2 -
16.10.2018 07:00:00 8,3 8,0 2 1 ZZO 1016,3 0,1 0,0
16.10.2018 06:00:00 7,4 7,0 2 1 ZO 1015,9 0,5 0,0
16.10.2018 05:00:00 6,7 6,0 2 1 ZO 1015,6 9 -
16.10.2018 04:00:00 7,2 6,0 2 1 OZO 1015,1 8 0,0
16.10.2018 03:00:00 7,7 6,6 4 2 Z 1015,1 7 0,0
16.10.2018 02:00:00 8,4 7,3 2 1 ZZW 1014,8 9 -
16.10.2018 01:00:00 9,2 8,0 2 1 Z 1014,2 10 0,0
16.10.2018 00:00:00 10,0 8,3 2 1 Z 1013,3 15 0,0
15.10.2018 23:00:00 11,1 9,0 2 1 ZZO 1012,5 15 -
15.10.2018 22:00:00 13,2 10,2 2 1 W 1011,5 20 0,0
15.10.2018 21:00:00 14,6 11,4 2 1 N 1010,9 20 0,0
15.10.2018 20:00:00 15,7 11,5 2 1 NO 1009,5 20 -
15.10.2018 19:00:00 17,1 11,4 4 2 W 1008,4 20 0,0
15.10.2018 18:00:00 16,9 11,0 5 3 WZW 1007,9 20 0,0
15.10.2018 17:00:00 17,3 11,3 5 3 Z 1006,8 20 -
15.10.2018 16:00:00 17,3 11,3 4 2 Z 1006,4 20 0,0
15.10.2018 15:00:00 17,2 10,8 5 3 ZZO 1006,0 20 0,0
15.10.2018 14:00:00 16,3 10,6 8 4 Z 1006,3 25 -
15.10.2018 13:00:00 15,2 10,4 11 6 Z 1005,6 20 0,0
15.10.2018 12:00:00 13,5 10,1 9 5 Z 1005,2 20 0,0
15.10.2018 11:00:00 12,1 10,2 5 3 Z 1005,1 20 -
15.10.2018 10:00:00 11,0 9,4 9 5 Z 1004,4 14 0,4
15.10.2018 09:00:00 10,9 9,2 8 4 Z 1004,5 20 0,0
15.10.2018 08:00:00 10,8 9,4 8 4 Z 1004,2 15 -
15.10.2018 07:00:00 10,8 8,7 9 5 ZZW 1003,8 8 0,4
15.10.2018 06:00:00 9,8 7,9 9 5 ZZW 1004,1 20 0,6
15.10.2018 05:00:00 9,6 4,6 15 8 Z 1004,5 17 -
15.10.2018 04:00:00 9,7 4,7 13 7 ZZW 1007,3 17 0,0
15.10.2018 03:00:00 9,8 6,0 9 5 Z 1008,6 17 0,2
15.10.2018 02:00:00 9,9 7,5 8 4 Z 1009,9 19 -
15.10.2018 01:00:00 10,1 7,2 9 5 ZZW 1010,9 19 0,0
15.10.2018 00:00:00 10,1 7,3 5 3 ZW 1011,7 20 0,0
14.10.2018 23:00:00 10,3 7,9 5 3 ZW 1012,3 20 -
14.10.2018 22:00:00 9,6 7,5 5 3 ZZW 1012,7 20 0,0
14.10.2018 21:00:00 9,4 7,3 4 2 Z 1013,0 19 0,0

tt = temperatuur
td = dauwpunt
ff = windsnelheid
dd = windrichting
ppp = luchtdruk
vv = zicht
rr = neerslag

Weerstations in de omgeving